AMC-6

Last updated on Sun Oct 06 2024 00:02:38 GMT+0000 (Coordinated Universal Time)

1 26580U 00067A 24279.60948253 .00000115 00000+0 00000+0 0 9990 2 26580 0.0864 79.1536 0002135 91.9546 284.0869 1.00272037 87685
UTC large
Height (km)
Speed (km/s)
/
Latitude / Longitude
Inclination (degrees)
Orbital Period (minutes)
Azimuth
Elevation
Range (km)
Doppler Factor

Next 0 passes for location: London (51.5072 / 0.1276)

Sorry there are no passes over London.